Regional Weather Roundup
Issued by NWS

Home | Current Version | Previous Version | Text Only | Print | Product List | Glossary On
Versions: 1 2 3 4 5 6 7 8 9 10 11 12 13 14 15 16 17 18 19 20 21 22 23 24 25 26 27 28 29 30 31 32 33 34 35 36 37 38 39 40 41 42 43 44 45 46 47 48 49 50
000
ASUS44 KFWD 221901
RWRTX
NORTH TEXAS HOURLY WEATHER ROUNDUP
NATIONAL WEATHER SERVICE FORT WORTH TX
200 PM CDT FRI SEP 22 2017

NOTE: "FAIR" INDICATES FEW OR NO CLOUDS BELOW 12,000 FEET WITH NO
SIGNIFICANT WEATHER AND/OR OBSTRUCTIONS TO VISIBILITY.

TXZ118-119-222000-
DALLAS/FORT WORTH METROPLEX

CITY           SKY/WX    TMP DP  RH WIND       PRES   REMARKS
DFW AIRPORT    PTSUNNY   90  69  50 SE12G20   29.94F HX  94
DALLAS LOVE    PTSUNNY   89  68  49 SE15      29.95F HX  93
FTW MEACHAM    MOSUNNY   91  71  51 SE20G25   29.94F HX  97
DAL-EXECUTIVE  MOSUNNY   90  68  48 S9G20     29.95F HX  94
FTW-ALLIANCE   MOSUNNY   90  70  51 SE12G25   29.94F HX  95
FTW-NAS-JRB    PTSUNNY   90  68  48 SE14G23   29.95F HX  94
FTW-SPINKS     PTSUNNY   91  68  46 SE15      29.97F HX  95
ARLINGTON      PTSUNNY   88  70  55 SE10      29.95F HX  93
GRAND PRAIRIE  SUNNY     90  66  45 SE12G17   29.96F HX  92
ADDISON        MOSUNNY   90  68  48 S12G24    29.97F HX  93
LANCASTER      MOSUNNY   90  64  42 SE14      29.96F HX  92
$$

TXZ091>094-102>105-117-120-121-131>134-222000-
NORTH CENTRAL TEXAS

CITY           SKY/WX    TMP DP  RH WIND       PRES   REMARKS
SHRMAN/DENISON MOSUNNY   86  70  57 S12G18    29.99F HX  91
GAINESVILLE    PTSUNNY   87  69  55 SE16G25   29.98S HX  91
BOWIE          MOSUNNY   87  70  56 SE10      29.95F HX  92
BRIDGEPORT     MOSUNNY   90  67  47 SE13      29.95F HX  93
DECATUR        MOSUNNY   87  68  52 SE16      29.95F HX  90
DENTON         MOSUNNY   90  72  55 SE17      29.95F HX  97
MCKINNEY       MOSUNNY   89  70  53 S12       29.97F HX  94
BONHAM         PTSUNNY   88  68  50 S12G20    29.98F HX  91
ROCKWALL       MOSUNNY   90  68  48 S7G22     29.97F HX  93
TERRELL        SUNNY     91  61  36 SE10G20   29.97F HX  91
WAXAHACHIE     PTSUNNY   91  67  45 SE9       29.97F HX  94
CLEBURNE       PTSUNNY   90  70  51 S12G18    29.96F HX  95
GRANBURY       CLOUDY    89  69  51 E13G18    29.94F HX  93
$$

TXZ083>090-098>101-113>116-127>130-139>142-154-155-222000-
WESTERN NORTH TEXAS

CITY           SKY/WX    TMP DP  RH WIND       PRES   REMARKS
WICHITA FALLS  MOSUNNY   89  69  51 S18G25    29.91F HX  93
WF-KICKAPOO    SUNNY     89  70  53 S16       29.93F HX  94
VERNON         MOSUNNY   92  61  35 S18       29.91F HX  92
ABILENE        PTSUNNY   88  66  48 S15       29.93F HX  90
BRECKENRIDGE   MOSUNNY   91  64  40 S9G18     29.92F HX  92
CISCO          MOSUNNY   88  66  48 S14G20    29.96F HX  90
EASTLAND       PTSUNNY   88  67  48 SE17      29.93F HX  91
RANGER         MOSUNNY   88  67  48 S12       29.95F HX  90
MINERAL WELLS  MOSUNNY   91  66  43 S14       29.92F HX  93
STEPHENVILLE   MOSUNNY   90  65  43 S14       29.97F HX  92
COMANCHE       MOSUNNY   92  64  39 S12G24    29.94F HX  94
BROWNWOOD      MOSUNNY   91  64  40 S8G20     29.93F HX  93
COLEMAN        MOSUNNY   89  65  43 S9        29.94F HX  91
$$

TXZ143>147-156>162-174-175-222000-
CENTRAL TEXAS

CITY           SKY/WX    TMP DP  RH WIND       PRES   REMARKS
WACO           MOSUNNY   92  69  47 SE13      29.94F HX  97
WACO-TSTC      MOSUNNY   91  66  43 S7G16     29.95F HX  94
WACO-MCGREGOR  MOSUNNY   91  70  49 SE20      29.95F HX  96
HILLSBORO      MOSUNNY   90  69  50 SE10      29.96F HX  94
CORSICANA      SUNNY     90  66  45 SE10      29.97F HX  92
MEXIA          MOSUNNY   89  67  47 SE7G20    29.96F HX  92
HEARNE         MOSUNNY  N/A N/A N/A E8        29.96F
CAMERON        PTSUNNY   90  69  50 SE6       29.95S HX  95
TEMPLE         MOSUNNY   90  71  53 SE14G22   29.95F HX  96
KILLEEN        MOSUNNY   90  68  48 SE17      29.94F HX  93
FORT HOOD      MOSUNNY   89  69  52 S12       29.92F HX  93
GATESVILLE     MOSUNNY   91  68  46 S12G17    29.96F HX  95
HAMILTON       PTSUNNY   92  67  44 S13G20    29.97S HX  95
LAMPASAS       MOSUNNY   91  70  51 S10G18    29.94F HX  96
$$

TXZ095>097-106>112-122>126-135>138-148>153-164>167-222000-
EAST TEXAS

CITY           SKY/WX    TMP DP  RH WIND       PRES   REMARKS
PARIS          SUNNY     89  67  47 SE8       30.00F HX  92
SULPHUR SPRNGS SUNNY     89  64  43 S10G16    30.01F HX  91
MOUNT PLEASANT SUNNY     89  68  50 S6        30.00F HX  93
GILMER         SUNNY     87  67  49 S9        29.99F HX  90
MINEOLA        SUNNY     90  66  45 SE6       29.98F HX  92
TYLER          SUNNY     90  64  42 SE8G18    29.98F HX  91
LONGVIEW       MOSUNNY   91  69  48 SE12      29.98F HX  96
MARSHALL       MOSUNNY   90  70  51 S6        30.01F HX  95
ATHENS         SUNNY     88  64  45 SE9       29.96F
PALESTINE      PTSUNNY   89  70  54 SE6       29.99F HX  94
JACKSONVILLE   SUNNY     86  69  55 S6        30.02F HX  90
HENDERSON      PTSUNNY   89  68  50 SE8       30.00S HX  93
CENTER         MOCLDY    92  72  51 SE6       30.00F HX  99
NACOGDOCHES    MOSUNNY   86  71  60 SE6       29.99F HX  91
LUFKIN         MOSUNNY   88  73  61 E7        29.98F HX  95
$$

SUPPLEMENTAL OBSERVATIONS (NWS FORT WORTH AREA)

CITY           SKY/WX    TMP DP  RH WIND       PRES   REMARKS
$$

SUPPLEMENTAL OBSERVATIONS (NWS NORMAN AREA)

CITY           SKY/WX    TMP DP  RH WIND       PRES   REMARKS
ODELL            N/A     90  69  49 S16       29.91F HX  94
CROWELL          N/A     93  66  41 S17G23    29.91F HX  95
KNOX CITY        N/A     93  62  35 S20G25    29.90F HX  93
SEYMOUR          N/A     91  64  40 S15G22    29.90F HX  93
$$

SUPPLEMENTAL OBSERVATIONS (NWS SAN ANGELO AREA)

CITY           SKY/WX    TMP DP  RH WIND       PRES   REMARKS
WEINERT          N/A     93  66  40 S18       29.91F HX  96
HASKELL          N/A     90  62  39 SE13G20   29.91F HX  90
THROCKMORTON     N/A     93  68  43 SE15      29.93S HX  97
STAMFORD         N/A     91  66  43 SE17      29.92F HX  94
CLYDE            N/A     88  67  49 S14       29.96F HX  91
$$

SUPPLEMENTAL OBSERVATIONS (NWS SHREVEPORT AREA)

CITY           SKY/WX    TMP DP  RH WIND       PRES   REMARKS
$$

SUPPLEMENTAL OBSERVATIONS ARE A COLLECTION OF AUTOMATED INSTRUMENTS
THAT ARE MAINTAINED BY A VARIETY OF FEDERAL AND STATE AGENCIES.
CERTAIN ELEMENTS...SUCH AS HUMIDITY VALUES AND SUSTAINED WIND
SPEEDS...MAY BE APPROXIMATED.





USA.gov is the U.S. government's official web portal to all federal, state and local government web resources and services.